Regional Weather Roundup
Issued by NWS

Home | Current Version | Previous Version | Graphics & Text | Print | Product List | Glossary On
Versions: 1 2 3 4 5 6 7 8 9 10 11 12 13 14 15 16 17 18 19 20 21 22 23 24 25 26 27 28 29 30 31 32 33 34 35 36 37 38 39 40 41 42 43 44 45 46 47 48 49 50
000
ASUS43 KLSX 260859
RWRMO

WEATHER SUMMARY FOR MISSOURI
NATIONAL WEATHER SERVICE SPRINGFIELD MO
300 AM CST MON JAN 26 2015

NOTE: "FAIR" INDICATES FEW OR NO CLOUDS BELOW 12,000 FEET WITH NO
       SIGNIFICANT WEATHER AND/OR OBSTRUCTIONS TO VISIBILITY.
       CURRENT SKY AND/OR WEATHER CONDITIONS ARE NOT AVAILABLE FOR
       CHILLICOTHE AND FARMINGTON.

MOZ001>031-035>038-043-044-053-054-261000-
...NORTHERN AND WESTERN MISSOURI...

CITY           SKY/WX    TMP DP  RH WIND       PRES   REMARKS
KANSAS CTY INT CLEAR     26  26 100 SW8       30.08F FOG     WCI  18
KANSAS C DTWN  CLEAR     29  26  89 SW3       30.09F
LEE`S SUMMIT   CLEAR     27  25  92 SW3       30.08F
ST JOSEPH      CLEAR     23  22  96 SW3       30.09S FOG
CHILLICOTHE      N/A     30  27  88 CALM      30.08S
KIRKSVILLE     CLOUDY    29  26  89 SW5       30.03F WCI  24

$$
MOZ066>068-077>081-088>096-101>105-261000-
...SOUTHWEST MISSOURI...

CITY           SKY/WX    TMP DP  RH WIND       PRES   REMARKS
SPRINGFIELD    CLOUDY    33  27  78 N13       30.08S WCI  24
JOPLIN         CLEAR     27  24  89 CALM      30.12F

$$
MOZ032>034-039>042-045>050-055>058-069>072-261000-
...CENTRAL MISSOURI...

CITY           SKY/WX    TMP DP  RH WIND       PRES   REMARKS
COLUMBIA       CLOUDY    30  26  85 N8        30.08R WCI  22
JEFFERSON CITY CLOUDY    32  27  81 NW7       30.09S WCI  26
ROLLA          CLOUDY    29  26  89 NW12      30.04R WCI  19
SEDALIA        CLEAR     32  27  81 CALM      30.08F
OSAGE BEACH    CLOUDY    32  27  80 NW6       30.09R WCI  26

$$
MOZ051-052-059>065-261000-
...EAST CENTRAL MISSOURI...

CITY           SKY/WX    TMP DP  RH WIND       PRES   REMARKS
ST LOUIS INTL  MOCLDY    28  19  69 NW9       30.04S WCI  19
SPIRIT OF STL  MOCLDY    27  22  81 NW7       30.06R WCI  19
ST CHARLES     MOCLDY    27  20  75 NW9       30.06R WCI  18

$$
MOZ072>076-082>087-097>100-106>115-261000-
...SOUTH CENTRAL AND SOUTHEAST MISSOURI...

CITY           SKY/WX    TMP DP  RH WIND       PRES   REMARKS
CAPE GIRARDEAU CLOUDY    33  27  78 N14G29    30.01R WCI  23
FARMINGTON     CLOUDY    30  25  80 MISG      30.04R
POPLAR BLUFF   CLOUDY    35  28  75 N10G23    30.02R WCI  27
WEST PLAINS    CLOUDY    33  28  81 NW12      30.05S WCI  24

$$



USA.gov is the U.S. government's official web portal to all federal, state and local government web resources and services.